Regional Weather Roundup
Issued by NWS Cleveland, OH

Home | Current Version | Previous Version | Text Only | Print | Product List | Glossary Off
Versions: 1 2 3 4 5 6 7 8 9 10 11 12 13 14 15 16 17 18 19 20 21 22 23 24 25 26 27 28 29 30 31 32 33 34 35 36 37 38 39 40 41 42 43 44 45 46 47 48 49 50

123
ASUS41 KCLE 230102
RWRCLE
OHIO REGIONAL WEATHER ROUNDUP
NATIONAL WEATHER SERVICE CLEVELAND, OH
900 PM EDT SAT APR 22 2017

NOTE: "FAIR" INDICATES FEW OR NO CLOUDS BELOW 12,000 FEET WITH NO
SIGNIFICANT WEATHER AND/OR OBSTRUCTIONS TO VISIBILITY.

OHZ001>008-015>018-024>027-034-035-043-044-230200-
   NORTHWEST OHIO

CITY           SKY/WX    TMP DP  RH WIND       PRES   REMARKS
DEFIANCE       CLOUDY    49  33  54 E5        30.11R
FINDLAY        PTCLDY    50  32  50 NE8       30.10S
TOLEDO EXPRESS CLOUDY    48  33  56 E3        30.11S
TOLEDO EXEC    PTCLDY    50  35  56 CALM      30.13R
LIMA           CLOUDY    48  33  56 NE8       30.11R
$$

OHZ009>014-019>023-028>033-038-089-230200-
   NORTHEAST OHIO

CITY           SKY/WX    TMP DP  RH WIND       PRES   REMARKS
CLE-HOPKINS    MOCLDY    47  35  63 N6        30.13S
CLE-LAKEFRONT  PTCLDY    46  37  71 NW5       30.10S
CUY CO. ARPT   MOCLDY    45  39  81 N7        30.11R
LORAIN-ELYRIA  PTCLDY    45  35  68 N3        30.11S
ASHTABULA      CLOUDY    45  37  73 CALM      30.11R
AKRON-CANTON   MOCLDY    47  33  58 NE8       30.08S
WOOSTER        CLOUDY    47  35  63 NE6       30.09R
MANSFIELD      MOCLDY    45  34  65 N7        30.09R
YOUNGSTOWN     CLOUDY    46  34  62 N5        30.09R
$$

OHZ042-051>053-060>062-070>072-077>081-230200-
  SOUTHWEST OHIO

CITY           SKY/WX    TMP DP  RH WIND       PRES   REMARKS
CINC-COVINGTON PTCLDY    52  34  50 NE17      30.02R
CINC-LUNKEN    CLEAR     51  37  58 NE8       30.04R
HAMILTON       CLEAR     51  34  52 NE7       30.06R
DAYTON         PTCLDY    47  33  58 NE10      30.08R
WRIGHT-PAT AFB PTCLDY    49  33  54 NE12      30.08R
DAYTON GENERAL PTCLDY    49  33  54 NE9       30.05R
WILMINGTON     PTCLDY    47  39  74 NE12      30.04R
$$

OHZ036-037-039>041-045>050-054>059-063>069-073>076-082>088-230200-
  CENTRAL AND SOUTHEAST OHIO

CITY           SKY/WX    TMP DP  RH WIND       PRES   REMARKS
COLUMBUS       MOCLDY    49  36  61 N8        30.07R
OSU AIRPORT    PTCLDY    48  34  58 N10       30.07R
BOLTON FIELD   NOT AVBL
RICKENBACK AFB MOCLDY    50  35  57 NE13      30.06R
NEWARK         PTCLDY    49  35  58 N7        30.06R
MARION         PTCLDY    45  34  65 NE10      30.10R
LANCASTER      CLOUDY    51  38  60 N10       30.06R
ZANESVILLE     PTCLDY    51  37  58 N7        30.06R
NEW PHILLY     NOT AVBL
$$




USA.gov is the U.S. government's official web portal to all federal, state and local government web resources and services.